• în România
  • Lista ţărilor
  • Pe 7 zile
  • Temperatura apei
  • Hartă satelitară
  • Meteo pe hartă
  • Widget-uri
  • user-avatar
    Intrare

    Meteo pe oră la Kameevo

    Astăzi, 17 August, Vineri

    Timp Temperatura Precipitaţii Vânt Presiune Umiditate
    00:00 +18°C° 0,2 mm 3 m/s 748 mmHg 96%
    01:00 +17°C° 0,2 mm 3 m/s 748 mmHg 97%
    02:00 +17°C° 0 mm 3 m/s 748 mmHg 97%
    03:00 +17°C° 0 mm 3 m/s 748 mmHg 97%
    04:00 +16°C° 0 mm 3 m/s 749 mmHg 98%
    05:00 +16°C° 0 mm 3 m/s 749 mmHg 96%
    06:00 +15°C° 0 mm 4 m/s 749 mmHg 95%
    07:00 +14°C° 0 mm 4 m/s 750 mmHg 94%
    08:00 +14°C° 0 mm 4 m/s 750 mmHg 92%
    09:00 +14°C° 0 mm 4 m/s 750 mmHg 90%
    10:00 +14°C° 0 mm 4 m/s 751 mmHg 86%
    11:00 +15°C° 0 mm 4 m/s 751 mmHg 82%
    12:00 +17°C° 0 mm 4 m/s 752 mmHg 78%
    13:00 +17°C° 0 mm 4 m/s 752 mmHg 74%
    14:00 +18°C° 0,1 mm 4 m/s 752 mmHg 71%
    15:00 +18°C° 0,1 mm 4 m/s 752 mmHg 67%
    16:00 +19°C° 0,1 mm 4 m/s 752 mmHg 64%
    17:00 +18°C° 0 mm 3 m/s 752 mmHg 68%
    18:00 +17°C° 0 mm 3 m/s 752 mmHg 72%
    19:00 +16°C° 0 mm 3 m/s 752 mmHg 77%
    20:00 +15°C° 0 mm 2 m/s 752 mmHg 79%
    21:00 +13°C° 0 mm 2 m/s 752 mmHg 81%
    22:00 +12°C° 0 mm 2 m/s 753 mmHg 83%
    23:00 +12°C° 0 mm 2 m/s 753 mmHg 84%

    Mâine, 18 August, Sâmbătă

    Timp Temperatura Precipitaţii Vânt Presiune Umiditate
    00:00 +10°C° 0 mm 2 m/s 753 mmHg 86%
    01:00 +9°C° 0 mm 2 m/s 753 mmHg 87%
    02:00 +9°C° 0 mm 2 m/s 753 mmHg 89%
    03:00 +9°C° 0 mm 2 m/s 753 mmHg 90%
    04:00 +8°C° 0 mm 2 m/s 753 mmHg 92%
    05:00 +9°C° 0 mm 2 m/s 753 mmHg 90%
    06:00 +10°C° 0 mm 2 m/s 753 mmHg 88%
    07:00 +10°C° 0 mm 2 m/s 753 mmHg 86%
    08:00 +12°C° 0 mm 3 m/s 753 mmHg 80%
    09:00 +14°C° 0 mm 3 m/s 754 mmHg 73%
    10:00 +16°C° 0 mm 3 m/s 754 mmHg 67%
    11:00 +17°C° 0 mm 3 m/s 753 mmHg 64%
    12:00 +18°C° 0 mm 4 m/s 753 mmHg 62%
    13:00 +18°C° 0 mm 4 m/s 753 mmHg 59%
    14:00 +18°C° 0,1 mm 4 m/s 753 mmHg 60%
    15:00 +18°C° 0,1 mm 4 m/s 753 mmHg 62%
    16:00 +17°C° 0,1 mm 5 m/s 753 mmHg 63%
    17:00 +17°C° 0 mm 4 m/s 753 mmHg 68%
    18:00 +15°C° 0 mm 4 m/s 753 mmHg 73%
    19:00 +13°C° 0 mm 3 m/s 753 mmHg 78%
    20:00 +12°C° 0 mm 3 m/s 754 mmHg 80%
    21:00 +11°C° 0 mm 3 m/s 754 mmHg 83%
    22:00 +10°C° 0 mm 3 m/s 754 mmHg 85%
    23:00 +9°C° 0 mm 3 m/s 754 mmHg 87%

    Poimâine, 19 August, Duminică

    Timp Temperatura Precipitaţii Vânt Presiune Umiditate
    00:00 +9°C° 0 mm 3 m/s 754 mmHg 88%
    01:00 +8°C° 0 mm 2 m/s 754 mmHg 89%
    02:00 +8°C° 0 mm 2 m/s 755 mmHg 90%
    03:00 +8°C° 0 mm 2 m/s 755 mmHg 92%
    04:00 +7°C° 0 mm 2 m/s 755 mmHg 93%
    05:00 +8°C° 0 mm 3 m/s 755 mmHg 90%
    06:00 +9°C° 0 mm 3 m/s 755 mmHg 87%
    07:00 +10°C° 0 mm 3 m/s 755 mmHg 85%
    08:00 +12°C° 0 mm 3 m/s 755 mmHg 79%
    09:00 +14°C° 0 mm 3 m/s 755 mmHg 73%
    10:00 +17°C° 0 mm 3 m/s 755 mmHg 67%
    11:00 +18°C° 0 mm 3 m/s 755 mmHg 63%
    12:00 +19°C° 0 mm 3 m/s 754 mmHg 59%
    13:00 +20°C° 0 mm 3 m/s 754 mmHg 56%
    14:00 +20°C° 0 mm 3 m/s 754 mmHg 56%
    15:00 +20°C° 0 mm 3 m/s 754 mmHg 56%
    16:00 +20°C° 0 mm 3 m/s 754 mmHg 57%
    17:00 +18°C° 0 mm 3 m/s 754 mmHg 63%
    18:00 +17°C° 0 mm 3 m/s 754 mmHg 70%
    19:00 +16°C° 0 mm 2 m/s 754 mmHg 77%
    20:00 +14°C° 0 mm 2 m/s 754 mmHg 80%
    21:00 +13°C° 0 mm 2 m/s 754 mmHg 83%
    22:00 +12°C° 0 mm 2 m/s 754 mmHg 86%
    23:00 +10°C° 0 mm 2 m/s 754 mmHg 86%

    20 August, Luni

    Timp Temperatura Precipitaţii Vânt Presiune Umiditate
    00:00 +10°C° 0 mm 1 m/s 754 mmHg 86%
    01:00 +10°C° 0 mm 1 m/s 754 mmHg 86%
    02:00 +9°C° 0 mm 1 m/s 754 mmHg 86%
    03:00 +9°C° 0 mm 1 m/s 754 mmHg 85%
    04:00 +9°C° 0 mm 1 m/s 754 mmHg 85%
    05:00 +10°C° 0 mm 1 m/s 754 mmHg 82%
    06:00 +11°C° 0 mm 1 m/s 754 mmHg 79%
    07:00 +12°C° 0 mm 1 m/s 754 mmHg 76%
    08:00 +14°C° 0 mm 1 m/s 754 mmHg 70%
    09:00 +16°C° 0 mm 1 m/s 754 mmHg 64%
    10:00 +19°C° 0 mm 1 m/s 754 mmHg 58%
    11:00 +19°C° 0 mm 1 m/s 754 mmHg 55%
    12:00 +20°C° 0 mm 1 m/s 753 mmHg 52%
    13:00 +21°C° 0 mm 1 m/s 753 mmHg 49%
    14:00 +21°C° 0 mm 1 m/s 753 mmHg 50%
    15:00 +21°C° 0 mm 1 m/s 753 mmHg 51%
    16:00 +20°C° 0 mm 2 m/s 752 mmHg 52%
    17:00 +20°C° 0 mm 1 m/s 752 mmHg 59%
    18:00 +19°C° 0 mm 1 m/s 752 mmHg 65%
    19:00 +16°C° 0 mm 1 m/s 752 mmHg 71%
    20:00 +15°C° 0 mm 1 m/s 752 mmHg 73%
    21:00 +14°C° 0 mm 1 m/s 752 mmHg 75%
    22:00 +13°C° 0 mm 1 m/s 752 mmHg 78%
    23:00 +13°C° 0 mm 1 m/s 752 mmHg 79%

    21 August, Marţi

    Timp Temperatura Precipitaţii Vânt Presiune Umiditate
    00:00 +12°C° 0 mm 1 m/s 752 mmHg 81%
    01:00 +12°C° 0 mm 1 m/s 752 mmHg 82%
    02:00 +12°C° 0 mm 1 m/s 752 mmHg 83%
    03:00 +12°C° 0 mm 1 m/s 752 mmHg 83%
    04:00 +12°C° 0 mm 1 m/s 752 mmHg 84%
    05:00 +13°C° 0 mm 2 m/s 752 mmHg 83%
    06:00 +13°C° 0 mm 2 m/s 752 mmHg 82%
    07:00 +14°C° 0 mm 2 m/s 752 mmHg 82%
    08:00 +14°C° 0,1 mm 3 m/s 751 mmHg 81%
    09:00 +16°C° 0,1 mm 3 m/s 751 mmHg 80%
    10:00 +17°C° 0,1 mm 3 m/s 751 mmHg 79%
    11:00 +17°C° 0,1 mm 3 m/s 751 mmHg 81%
    12:00 +17°C° 0,1 mm 3 m/s 751 mmHg 84%
    13:00 +17°C° 0,1 mm 3 m/s 750 mmHg 86%
    14:00 +18°C° 0,2 mm 3 m/s 750 mmHg 83%
    15:00 +19°C° 0,2 mm 3 m/s 750 mmHg 81%
    16:00 +20°C° 0,2 mm 3 m/s 750 mmHg 79%
    17:00 +20°C° 0,5 mm 3 m/s 750 mmHg 83%
    18:00 +19°C° 0,5 mm 2 m/s 750 mmHg 86%
    19:00 +19°C° 0,5 mm 2 m/s 750 mmHg 90%
    20:00 +18°C° 0,2 mm 2 m/s 750 mmHg 91%
    21:00 +17°C° 0,2 mm 2 m/s 750 mmHg 93%
    22:00 +16°C° 0,2 mm 2 m/s 750 mmHg 95%
    23:00 +16°C° 0 mm 2 m/s 749 mmHg 95%

    22 August, Miercuri

    Timp Temperatura Precipitaţii Vânt Presiune Umiditate
    00:00 +15°C° 0 mm 2 m/s 749 mmHg 96%
    01:00 +15°C° 0 mm 2 m/s 749 mmHg 96%
    02:00 +15°C° 0 mm 2 m/s 749 mmHg 96%
    03:00 +15°C° 0 mm 2 m/s 749 mmHg 96%
    04:00 +15°C° 0 mm 2 m/s 748 mmHg 96%
    05:00 +14°C° 0 mm 3 m/s 748 mmHg 96%
    06:00 +16°C° 0 mm 3 m/s 748 mmHg 95%
    07:00 +16°C° 0 mm 3 m/s 748 mmHg 94%
    08:00 +18°C° 0,1 mm 4 m/s 748 mmHg 90%
    09:00 +19°C° 0,1 mm 4 m/s 748 mmHg 86%
    10:00 +21°C° 0,1 mm 5 m/s 747 mmHg 83%
    11:00 +22°C° 1 mm 5 m/s 747 mmHg 80%
    12:00 +23°C° 1 mm 6 m/s 746 mmHg 78%
    13:00 +23°C° 1 mm 6 m/s 746 mmHg 75%
    14:00 +23°C° 1 mm 6 m/s 746 mmHg 78%
    15:00 +23°C° 1 mm 5 m/s 746 mmHg 80%
    16:00 +22°C° 1 mm 5 m/s 745 mmHg 83%
    17:00 +21°C° 0,8 mm 5 m/s 745 mmHg 85%
    18:00 +20°C° 0,8 mm 5 m/s 745 mmHg 88%
    19:00 +20°C° 0,8 mm 5 m/s 744 mmHg 90%
    20:00 +19°C° 1,2 mm 5 m/s 744 mmHg 91%
    21:00 +19°C° 1,2 mm 5 m/s 744 mmHg 92%
    22:00 +17°C° 1,2 mm 5 m/s 743 mmHg 93%
    23:00 +17°C° 0,2 mm 5 m/s 743 mmHg 94%
    Arată mai mult